DW4915 Mazarete ES current weather conditions

sailwx.info

Wind from 350 at 4 knots gusting 7

Air temperature 15.6° C
Dewpoint 4.6° C

Last reported at 2014-Oct-23 17:46 UTC.
Time now 2014-Oct-23 18:40 UTC

Location: N 40°58' W 002°11'.
View on Google Maps.

See reports from other nearby stations

  
Tides and Currents Weather Stations Pressure Air Temp Water Temp Dewpoint Dewpoint Depression Visibility Wind Speed Wind Dir Waves Ship Positions
date/time (UTC)wind fromknots sea level pressurealtimeterstation pressurevisibilityair tempwater tempwave heightnotes
2014-Oct-23 17:46 350 4 gusting 7 15.6
2014-Oct-23 17:41 350 3 gusting 7 15.6
2014-Oct-23 17:31 352 3 gusting 8 16.1
2014-Oct-23 17:21 347 6 gusting 10 16.1
2014-Oct-23 17:16 349 6 gusting 9 16.1
2014-Oct-23 17:11 345 5 gusting 8 16.7
2014-Oct-23 17:06 343 4 gusting 8 16.7
2014-Oct-23 16:56 343 6 gusting 11 17.2
2014-Oct-23 16:51 345 6 gusting 11 17.2
2014-Oct-23 16:41 343 6 gusting 8 17.2
2014-Oct-23 16:31 344 4 gusting 8 17.2
2014-Oct-23 16:26 346 5 gusting 8 17.8
2014-Oct-23 16:21 345 5 gusting 9 17.8
2014-Oct-23 16:16 345 6 gusting 11 17.8
2014-Oct-23 16:11 341 6 gusting 10 18.3
2014-Oct-23 16:06 339 6 gusting 10 18.3
2014-Oct-23 15:56 348 8 gusting 11 18.9
2014-Oct-23 15:51 349 8 gusting 13 18.3
2014-Oct-23 15:46 349 6 gusting 13 18.3
2014-Oct-23 15:41 358 6 gusting 8 18.3
2014-Oct-23 15:31 348 7 gusting 13 18.9
2014-Oct-23 15:26 359 6 gusting 13 18.9
2014-Oct-23 15:16 015 5 gusting 12 19.4
2014-Oct-23 15:11 354 6 gusting 12 19.4
2014-Oct-23 15:06 351 6 gusting 12 19.4
2014-Oct-23 15:01 359 5 gusting 11 19.4
2014-Oct-23 14:51 355 6 gusting 15 19.4
2014-Oct-23 14:46 349 12 gusting 15 20.0
2014-Oct-23 14:41 022 6 gusting 18 20.0
2014-Oct-23 14:31 348 7 gusting 15 20.0
2014-Oct-23 14:26 360 10 gusting 15 20.6
2014-Oct-23 14:21 348 6 gusting 18 20.6
2014-Oct-23 14:16 011 10 gusting 18 20.6
2014-Oct-23 14:11 001 8 gusting 13 20.6
2014-Oct-23 14:01 348 13 gusting 18 20.6
2014-Oct-23 13:56 002 7 gusting 14 20.6
2014-Oct-23 13:51 332 8 gusting 16 20.6
2014-Oct-23 13:46 335 11 gusting 17 20.0
2014-Oct-23 13:41 355 8 gusting 13 20.0
2014-Oct-23 13:36 358 9 gusting 16 20.0
2014-Oct-23 13:26 357 4 gusting 13 20.6
2014-Oct-23 13:21 028 6 gusting 14 20.6
2014-Oct-23 13:16 061 8 gusting 13 20.6
2014-Oct-23 13:11 356 5 gusting 13 20.6
2014-Oct-23 13:01 352 11 gusting 16 20.0
2014-Oct-23 12:56 359 10 gusting 16 20.0
2014-Oct-23 12:46 339 8 gusting 14 20.0
2014-Oct-23 12:41 001 8 gusting 17 20.0
2014-Oct-23 12:36 018 11 gusting 18 19.4
2014-Oct-23 12:26 341 7 gusting 17 20.0
2014-Oct-23 12:21 350 11 gusting 17 19.4
2014-Oct-23 12:16 348 12 gusting 16 20.0
2014-Oct-23 12:11 351 9 gusting 17 19.4
2014-Oct-23 12:06 058 6 gusting 17 19.4
2014-Oct-23 12:01 339 6 gusting 12 20.0
2014-Oct-23 11:56 011 4 gusting 12 20.0
2014-Oct-23 11:51 008 6 gusting 12 20.0
2014-Oct-23 11:46 010 5 gusting 13 19.4
2014-Oct-23 11:41 346 8 gusting 17 19.4
2014-Oct-23 11:36 351 11 gusting 17 19.4
2014-Oct-23 11:26 350 7 gusting 12 19.4
2014-Oct-23 11:21 356 5 gusting 12 18.9
2014-Oct-23 11:16 023 4 gusting 13 18.9
2014-Oct-23 11:11 002 7 gusting 15 18.9
2014-Oct-23 11:01 350 6 gusting 15 18.3
2014-Oct-23 10:56 353 11 gusting 14 18.3
2014-Oct-23 10:51 354 8 gusting 14 18.3
2014-Oct-23 10:46 355 8 gusting 14 18.3
2014-Oct-23 10:41 354 6 gusting 16 18.3
2014-Oct-23 10:31 345 6 gusting 14 18.3
2014-Oct-23 10:26 007 8 gusting 18 18.3
2014-Oct-23 10:16 013 5 gusting 12 17.8
2014-Oct-23 10:11 339 6 gusting 13 17.8
2014-Oct-23 10:06 350 9 gusting 13 17.8
2014-Oct-23 09:56 359 6 gusting 13 17.8
2014-Oct-23 09:51 001 7 gusting 13 17.2
2014-Oct-23 09:46 348 6 gusting 13 17.2
2014-Oct-23 09:41 348 7 gusting 12 17.2
2014-Oct-23 09:36 036 3 gusting 7 17.2
2014-Oct-23 09:31 011 3 gusting 13 17.2
2014-Oct-23 09:26 019 2 gusting 10 16.7
2014-Oct-23 09:21 051 2 gusting 7 16.1
2014-Oct-23 09:16 016 1 gusting 7 16.1
2014-Oct-23 09:11 010 3 gusting 7 16.1
2014-Oct-23 09:06 010 4 gusting 7 15.6
2014-Oct-23 09:01 015 2 gusting 12 15.6
2014-Oct-23 08:56 021 3 gusting 12 15.0
2014-Oct-23 08:51 015 4 gusting 10 15.0
2014-Oct-23 08:46 352 3 gusting 10 15.0
2014-Oct-23 08:36 007 4 gusting 6 14.4
2014-Oct-23 08:31 023 4 gusting 9 14.4
2014-Oct-23 08:21 026 3 gusting 7 13.9
2014-Oct-23 08:16 015 3 gusting 7 13.9
2014-Oct-23 08:11 022 2 gusting 7 13.9
2014-Oct-23 08:01 010 1 gusting 6 13.3
2014-Oct-23 07:56 025 3 gusting 5 13.3
2014-Oct-23 07:51 020 2 gusting 6 12.8
2014-Oct-23 07:41 029 3 gusting 6 12.2
2014-Oct-23 07:36 019 2 gusting 6 12.2
2014-Oct-23 07:26 023 2 gusting 8 11.7
2014-Oct-23 07:21 018 3 gusting 8 11.1
2014-Oct-23 07:16 023 2 gusting 6 10.6
2014-Oct-23 07:11 034 2 gusting 6 10.6
2014-Oct-23 07:06 031 2 gusting 6 10.0
2014-Oct-23 07:01 031 2 gusting 6 10.0
2014-Oct-23 06:51 035 3 gusting 9 9.4
2014-Oct-23 06:46 037 3 gusting 7 9.4
2014-Oct-23 06:41 024 2 gusting 5 9.4
2014-Oct-23 06:31 024 2 gusting 7 10.0
2014-Oct-23 06:26 009 2 gusting 7 10.0
2014-Oct-23 06:21 013 1 gusting 7 10.0
2014-Oct-23 06:16 010 1 gusting 6 10.0
2014-Oct-23 06:11 012 2 gusting 7 10.0
2014-Oct-23 06:06 007 1 gusting 6 9.4
2014-Oct-23 06:01 010 2 gusting 6 9.4
2014-Oct-23 05:56 019 1 gusting 5 9.4
2014-Oct-23 05:51 025 2 gusting 5 9.4
2014-Oct-23 05:46 026 2 gusting 6 9.4
2014-Oct-23 05:41 027 2 gusting 6 9.4
2014-Oct-23 05:31 022 1 gusting 5 9.4
2014-Oct-23 05:26 021 1 gusting 7 9.4
2014-Oct-23 05:16 033 2 gusting 5 9.4
2014-Oct-23 05:11 023 1 gusting 5 9.4
2014-Oct-23 05:06 023 1 gusting 5 8.9
2014-Oct-23 04:56 026 2 gusting 6 8.9
2014-Oct-23 04:51 028 3 gusting 7 8.9
2014-Oct-23 04:46 018 2 gusting 5 8.3
2014-Oct-23 04:41 007 1 gusting 6 8.3
2014-Oct-23 04:36 008 2 gusting 6 8.9
2014-Oct-23 04:31 007 1 gusting 5 8.9
2014-Oct-23 04:26 006 0 gusting 5 8.9
2014-Oct-23 04:21 004 1 gusting 5 8.9
2014-Oct-23 04:16 004 0 gusting 6 8.9
2014-Oct-23 04:11 360 1 gusting 6 8.9
2014-Oct-23 04:06 359 0 gusting 4 8.9
2014-Oct-23 04:01 356 1 gusting 5 8.9
2014-Oct-23 03:56 352 1 gusting 4 8.9
2014-Oct-23 03:51 348 1 gusting 4 9.4
2014-Oct-23 03:46 348 0 gusting 4 9.4
2014-Oct-23 03:36 348 0 gusting 4 10.0
2014-Oct-23 03:31 348 1 gusting 6 10.6
2014-Oct-23 03:26 348 1 gusting 6 10.6
2014-Oct-23 03:21 347 3 gusting 9 10.6
2014-Oct-23 03:16 346 5 gusting 9 10.6
2014-Oct-23 03:11 345 4 gusting 8 10.6
2014-Oct-23 03:06 345 6 gusting 8 10.0
2014-Oct-23 03:01 345 4 gusting 9 10.0
2014-Oct-23 02:56 345 4 gusting 9 10.0
2014-Oct-23 02:51 335 6 gusting 9 9.4
2014-Oct-23 02:46 287 3 gusting 6 7.8
2014-Oct-23 02:41 278 0 gusting 6 6.7
2014-Oct-23 02:31 250 6.1
2014-Oct-23 02:26 250 6.7
2014-Oct-23 02:21 251 7.2
2014-Oct-23 02:16 252 7.8
2014-Oct-23 02:11 250 8.3
2014-Oct-23 02:06 250 0 gusting 3 8.9
2014-Oct-23 01:56 268 2 gusting 5 10.0
2014-Oct-23 01:51 025 1 gusting 3 10.6
2014-Oct-23 01:46 025 10.6
2014-Oct-23 01:41 025 11.1
2014-Oct-23 01:36 023 0 gusting 10 11.1
2014-Oct-23 01:31 031 2 gusting 10 11.1
2014-Oct-23 01:26 013 2 gusting 9 11.1
2014-Oct-23 01:21 358 3 gusting 7 10.6
2014-Oct-23 01:16 025 3 gusting 7 10.6
2014-Oct-23 01:11 011 2 gusting 8 10.0
2014-Oct-23 01:06 360 4 gusting 8 10.0
2014-Oct-23 01:01 009 2 gusting 9 10.0
2014-Oct-23 00:56 016 3 gusting 9 9.4
2014-Oct-23 00:51 010 2 gusting 6 9.4
2014-Oct-23 00:41 015 2 gusting 6 10.0
2014-Oct-23 00:36 012 1 gusting 6 10.0
2014-Oct-23 00:31 012 3 gusting 6 10.0
2014-Oct-23 00:26 009 2 gusting 6 9.4
2014-Oct-23 00:21 025 1 gusting 7 9.4
2014-Oct-23 00:16 031 3 gusting 7 9.4
2014-Oct-23 00:06 025 2 gusting 6 8.9
2014-Oct-23 00:01 020 1 gusting 6 8.3
2014-Oct-22 23:51 031 0 gusting 4 7.2
2014-Oct-22 23:46 031 0 gusting 3 7.2
2014-Oct-22 23:41 031 7.2
2014-Oct-22 23:36 030 8.3
2014-Oct-22 23:26 033 8.9
2014-Oct-22 23:21 031 9.4
2014-Oct-22 23:16 030 10.0
2014-Oct-22 23:06 032 1 gusting 9 10.6
2014-Oct-22 23:01 040 3 gusting 9 10.6
2014-Oct-22 22:56 040 3 gusting 9 10.6
2014-Oct-22 22:51 031 3 gusting 9 10.6
2014-Oct-22 22:46 025 2 gusting 7 10.6
2014-Oct-22 22:41 035 2 gusting 7 10.6
2014-Oct-22 22:36 019 3 gusting 6 10.6
2014-Oct-22 22:31 022 3 gusting 7 11.1
2014-Oct-22 22:26 020 2 gusting 6 11.1
2014-Oct-22 22:21 023 2 gusting 6 10.6
2014-Oct-22 22:16 035 3 gusting 6 10.6
2014-Oct-22 21:51 026 1 gusting 6 10.0
2014-Oct-22 21:46 019 1 gusting 6 10.0
2014-Oct-22 21:36 019 2 gusting 6 9.4
2014-Oct-22 21:31 016 2 gusting 6 9.4
2014-Oct-22 21:26 017 1 gusting 6 8.9
2014-Oct-22 21:21 029 0 gusting 4 8.3
2014-Oct-22 21:16 032 0 gusting 4 7.8
2014-Oct-22 21:11 032 0 gusting 2 8.3
2014-Oct-22 21:06 033 8.9
2014-Oct-22 20:56 031 9.4
2014-Oct-22 20:51 031 10.0
2014-Oct-22 20:46 032 0 gusting 6 10.0
2014-Oct-22 20:41 030 1 gusting 6 10.0
2014-Oct-22 20:36 029 1 gusting 6 10.6
2014-Oct-22 20:26 011 2 gusting 5 10.6
2014-Oct-22 20:21 019 1 gusting 6 10.6
2014-Oct-22 20:16 012 2 gusting 8 10.6
2014-Oct-22 20:11 003 3 gusting 8 10.6
2014-Oct-22 20:06 040 2 gusting 7 10.6
2014-Oct-22 19:56 019 2 gusting 6 10.6
2014-Oct-22 19:51 025 2 gusting 6 10.6
2014-Oct-22 19:46 023 4 gusting 6 10.6
2014-Oct-22 19:36 025 2 gusting 6 10.6
2014-Oct-22 19:31 024 2 gusting 6 10.6
2014-Oct-22 19:26 001 3 gusting 6 10.0
2014-Oct-22 19:16 023 2 gusting 6 10.0
2014-Oct-22 19:11 019 1 gusting 6 10.0
2014-Oct-22 19:06 019 1 gusting 4 10.0
2014-Oct-22 19:01 023 1 gusting 4 9.4
2014-Oct-22 18:51 025 1 gusting 3 8.9
2014-Oct-22 18:46 044 0 gusting 6 8.9
2014-Oct-22 18:41 044 2 gusting 8 8.9
2014-Oct-22 18:36 044 5 gusting 8 8.9
2014-Oct-22 18:26 044 3 gusting 7 9.4
2014-Oct-22 18:21 044 0 gusting 7 10.0
2014-Oct-22 18:16 044 5 gusting 7 10.0
2014-Oct-22 18:11 036 5 gusting 6 10.0
2014-Oct-22 18:06 035 4 gusting 7 10.6
2014-Oct-22 18:01 036 4 gusting 7 10.6
2014-Oct-22 17:56 035 3 gusting 6 10.6
2014-Oct-22 17:51 035 2 gusting 5 11.1
2014-Oct-22 17:41 034 12.2
2014-Oct-22 17:36 036 12.2
2014-Oct-22 17:31 034 0 gusting 5 12.8
2014-Oct-22 17:26 036 1 gusting 6 13.3
2014-Oct-22 17:21 030 1 gusting 6 13.3
2014-Oct-22 17:16 025 2 gusting 5 13.9
2014-Oct-22 17:06 023 1 gusting 9 14.4
2014-Oct-22 17:01 034 1 gusting 9 15.0
2014-Oct-22 16:56 019 2 gusting 6 15.0
2014-Oct-22 16:51 030 2 gusting 6 15.6
2014-Oct-22 16:46 019 1 gusting 6 15.6
2014-Oct-22 16:41 023 1 gusting 6 16.1
2014-Oct-22 16:36 015 3 gusting 7 16.7
2014-Oct-22 16:26 005 4 gusting 13 16.7
2014-Oct-22 16:21 355 5 gusting 13 16.7
2014-Oct-22 16:16 002 4 gusting 13 16.7
2014-Oct-22 16:11 003 6 gusting 13 17.2
2014-Oct-22 16:06 355 2 gusting 13 17.2
2014-Oct-22 16:01 345 6 gusting 13 17.2
2014-Oct-22 15:56 352 5 gusting 11 17.2
2014-Oct-22 15:46 027 2 gusting 10 17.2
2014-Oct-22 15:41 004 6 gusting 10 17.2
2014-Oct-22 15:36 018 4 gusting 7 17.8
2014-Oct-22 15:31 002 4 gusting 12 17.8
2014-Oct-22 15:26 004 0 gusting 12 17.8
2014-Oct-22 15:21 005 6 gusting 12 17.8
2014-Oct-22 15:16 331 6 gusting 12 17.2
2014-Oct-22 15:11 042 2 gusting 10 17.8
2014-Oct-22 15:06 032 6 gusting 19 17.8
2014-Oct-22 15:01 348 11 gusting 19 17.8
2014-Oct-22 14:56 344 6 gusting 14 17.8
2014-Oct-22 14:46 359 4 gusting 13 17.8
2014-Oct-22 14:41 356 9 gusting 13 17.8
2014-Oct-22 14:36 356 4 gusting 13 17.8
2014-Oct-22 14:26 345 6 gusting 13 17.8
2014-Oct-22 14:21 019 6 gusting 10 17.8
2014-Oct-22 14:16 348 6 gusting 12 17.8
2014-Oct-22 14:11 347 5 gusting 12 17.8
2014-Oct-22 14:06 018 4 gusting 13 17.8
2014-Oct-22 13:46 350 4 gusting 12 17.8
2014-Oct-22 13:41 013 4 gusting 15 17.8
2014-Oct-22 13:36 021 7 gusting 15 17.2
2014-Oct-22 13:26 353 5 gusting 15 17.2
2014-Oct-22 13:21 349 10 gusting 15 17.2
2014-Oct-22 13:16 002 4 gusting 9 17.2
2014-Oct-22 13:11 005 4 gusting 15 16.7
2014-Oct-22 13:06 356 6 gusting 16 16.7
2014-Oct-22 13:01 007 9 gusting 17 16.1
2014-Oct-22 12:56 003 10 gusting 17 16.1
2014-Oct-22 12:51 002 11 gusting 17 16.1
2014-Oct-22 12:41 358 6 gusting 19 16.1
2014-Oct-22 12:36 356 13 gusting 19 15.6
2014-Oct-22 12:31 354 9 gusting 17 16.1
2014-Oct-22 12:26 350 10 gusting 17 16.1
2014-Oct-22 12:16 002 6 gusting 13 16.1
2014-Oct-22 12:11 006 5 gusting 17 15.6
2014-Oct-22 12:01 351 6 gusting 16 15.6
2014-Oct-22 11:56 351 7 gusting 12 15.6
2014-Oct-22 11:51 002 6 gusting 13 15.0
2014-Oct-22 11:41 349 9 gusting 17 15.0
2014-Oct-22 11:36 352 11 gusting 18 15.6
2014-Oct-22 11:31 348 5 gusting 18 15.6
2014-Oct-22 11:26 353 7 gusting 20 15.6
2014-Oct-22 11:21 350 6 gusting 20 15.6
2014-Oct-22 11:16 023 4 gusting 11 15.0
2014-Oct-22 11:11 352 6 gusting 11 15.0
2014-Oct-22 11:01 013 4 gusting 13 14.4
2014-Oct-22 10:56 011 3 gusting 13 14.4
2014-Oct-22 10:51 016 5 gusting 13 14.4
2014-Oct-22 10:46 346 6 gusting 14 14.4
2014-Oct-22 10:41 019 5 gusting 13 15.0
2014-Oct-22 10:36 360 6 gusting 17 14.4
2014-Oct-22 10:31 004 9 gusting 17 15.0
2014-Oct-22 10:26 360 5 gusting 13 14.4
2014-Oct-22 10:16 354 6 gusting 15 13.9
2014-Oct-22 10:06 029 4 gusting 13 13.3
2014-Oct-22 10:01 358 5 gusting 13 12.8
2014-Oct-22 09:51 019 5 gusting 11 12.8
2014-Oct-22 09:46 358 3 gusting 13 12.8
2014-Oct-22 09:41 357 6 gusting 15 12.8
2014-Oct-22 09:36 354 6 gusting 11 12.8
2014-Oct-22 09:31 011 6 gusting 10 12.2
2014-Oct-22 09:26 005 4 gusting 11 12.2
2014-Oct-22 09:21 018 5 gusting 12 12.2
2014-Oct-22 09:16 025 6 gusting 13 12.2
2014-Oct-22 09:11 025 5 gusting 11 12.2
2014-Oct-22 09:06 049 4 gusting 9 12.2
2014-Oct-22 09:01 031 4 gusting 13 11.7
2014-Oct-22 08:56 017 4 gusting 13 11.7
2014-Oct-22 08:51 025 4 gusting 10 11.7
2014-Oct-22 08:46 014 5 gusting 13 11.1
2014-Oct-22 08:41 030 5 gusting 13 11.1
2014-Oct-22 08:36 021 4 gusting 13 10.6
2014-Oct-22 08:31 025 5 gusting 11 10.6
2014-Oct-22 08:26 038 4 gusting 11 10.6
2014-Oct-22 08:21 017 5 gusting 11 10.0
2014-Oct-22 08:16 011 5 gusting 13 10.0
2014-Oct-22 08:11 040 4 gusting 13 10.0
2014-Oct-22 08:06 030 3 gusting 10 9.4
2014-Oct-22 08:01 038 2 gusting 8 9.4
2014-Oct-22 07:56 030 3 gusting 8 9.4
2014-Oct-22 07:51 023 5 gusting 8 9.4
2014-Oct-22 07:46 026 3 gusting 8 9.4
2014-Oct-22 07:36 015 2 gusting 8 8.9
2014-Oct-22 07:26 021 3 gusting 10 8.9
2014-Oct-22 07:21 020 4 gusting 10 8.9
2014-Oct-22 07:16 022 3 gusting 9 8.9
2014-Oct-22 07:11 027 3 gusting 8 8.9
2014-Oct-22 07:01 015 3 gusting 7 8.3
2014-Oct-22 06:56 017 2 gusting 6 8.3
2014-Oct-22 06:51 019 2 gusting 7 8.3
2014-Oct-22 06:46 005 3 gusting 7 8.3
2014-Oct-22 06:41 017 1 gusting 6 8.3
2014-Oct-22 06:36 019 1 gusting 6 8.3
2014-Oct-22 06:21 010 2 gusting 8 8.9
2014-Oct-22 06:16 004 3 gusting 8 8.9
2014-Oct-22 06:11 010 3 gusting 8 8.9
2014-Oct-22 06:06 011 3 gusting 13 8.9
2014-Oct-22 06:01 002 4 gusting 13 8.9
2014-Oct-22 05:56 005 4 gusting 11 8.9
2014-Oct-22 05:51 349 4 gusting 10 8.9
2014-Oct-22 05:41 031 4 gusting 8 8.9
2014-Oct-22 05:36 013 2 gusting 13 8.9
2014-Oct-22 05:31 009 4 gusting 13 8.9
2014-Oct-22 05:21 020 2 gusting 10 8.9
2014-Oct-22 05:16 009 2 gusting 10 8.9
2014-Oct-22 05:11 011 1 gusting 8 8.9
2014-Oct-22 05:01 034 0 gusting 5 8.9
2014-Oct-22 04:56 034 9.4
2014-Oct-22 04:51 032 0 gusting 7 9.4
2014-Oct-22 04:46 023 1 gusting 10 9.4
2014-Oct-22 04:41 039 2 gusting 10 9.4
2014-Oct-22 04:36 028 2 gusting 6 9.4
2014-Oct-22 04:31 022 2 gusting 8 9.4
2014-Oct-22 04:21 023 2 gusting 6 9.4
2014-Oct-22 04:16 029 1 gusting 6 9.4
2014-Oct-22 04:06 024 0 gusting 6 9.4
2014-Oct-22 04:01 026 0 gusting 5 9.4
2014-Oct-22 03:56 026 0 gusting 5 9.4
2014-Oct-22 03:51 027 1 gusting 5 9.4
2014-Oct-22 03:46 026 1 gusting 5 9.4
2014-Oct-22 03:41 024 0 gusting 4 9.4
2014-Oct-22 03:36 025 1 gusting 4 9.4
2014-Oct-22 03:31 025 0 gusting 5 9.4
2014-Oct-22 03:26 025 0 gusting 5 9.4
2014-Oct-22 03:21 020 1 gusting 6 9.4
2014-Oct-22 03:11 024 10.0
2014-Oct-22 03:06 023 10.0
2014-Oct-22 03:01 023 10.0
2014-Oct-22 02:56 023 0 gusting 4 10.6
2014-Oct-22 02:51 024 0 gusting 5 10.6
2014-Oct-22 02:46 022 0 gusting 5 10.6
2014-Oct-22 02:41 022 10.6
2014-Oct-22 02:36 023 0 gusting 8 11.1
2014-Oct-22 02:31 023 1 gusting 8 11.1
2014-Oct-22 02:26 015 1 gusting 7 11.1
2014-Oct-22 02:16 011 3 gusting 7 11.1
2014-Oct-22 02:11 018 3 gusting 6 11.1
2014-Oct-22 02:06 029 2 gusting 6 11.1
2014-Oct-22 02:01 034 2 gusting 9 11.1
2014-Oct-22 01:56 030 3 gusting 9 11.1
2014-Oct-22 01:51 027 2 gusting 8 11.1
2014-Oct-22 01:41 028 2 gusting 7 11.1
2014-Oct-22 01:36 039 3 gusting 7 11.7
2014-Oct-22 01:31 037 3 gusting 8 11.7
2014-Oct-22 01:21 036 3 gusting 7 11.7
2014-Oct-22 01:16 031 3 gusting 6 11.7
2014-Oct-22 01:11 039 2 gusting 7 11.7
2014-Oct-22 01:06 032 2 gusting 7 11.7
2014-Oct-22 01:01 028 3 gusting 7 11.7
2014-Oct-22 00:56 032 3 gusting 6 11.7
2014-Oct-22 00:51 029 2 gusting 6 11.7
2014-Oct-22 00:41 027 1 gusting 6 12.2
2014-Oct-22 00:36 023 0 gusting 6 12.2
2014-Oct-22 00:31 023 2 gusting 5 12.2
2014-Oct-22 00:21 022 0 gusting 5 12.2
2014-Oct-22 00:16 022 2 gusting 5 12.2
2014-Oct-22 00:11 021 1 gusting 6 12.2
2014-Oct-22 00:01 020 1 gusting 6 12.2
2014-Oct-21 23:56 019 2 gusting 6 12.2
2014-Oct-21 23:51 019 1 gusting 6 12.8
2014-Oct-21 23:41 029 3 gusting 6 12.8
2014-Oct-21 23:36 025 2 gusting 6 12.8
2014-Oct-21 23:31 022 1 gusting 4 12.8
2014-Oct-21 23:26 021 1 gusting 5 12.8
2014-Oct-21 23:16 019 0 gusting 6 12.8
2014-Oct-21 23:11 017 2 gusting 6 12.8
2014-Oct-21 23:06 007 1 gusting 12 11.7
2014-Oct-21 23:01 346 6 gusting 12 9.4
2014-Oct-21 22:56 324 6 gusting 7 8.3
2014-Oct-21 22:51 324 0 gusting 2 8.3
2014-Oct-21 22:46 323 8.3
2014-Oct-21 22:41 323 8.3
2014-Oct-21 22:36 323 8.3
2014-Oct-21 22:31 325 8.9
2014-Oct-21 22:26 325 8.9
2014-Oct-21 22:16 323 9.4
2014-Oct-21 22:11 323 9.4
2014-Oct-21 22:06 323 9.4
2014-Oct-21 22:01 323 9.4
2014-Oct-21 21:56 325 9.4
2014-Oct-21 21:51 323 9.4
2014-Oct-21 21:46 324 9.4
2014-Oct-21 21:36 324 10.0
2014-Oct-21 21:31 325 10.0
2014-Oct-21 21:26 325 10.6
2014-Oct-21 21:16 324 10.6
2014-Oct-21 21:11 324 11.1
2014-Oct-21 21:01 323 11.7
2014-Oct-21 20:56 324 11.7
2014-Oct-21 20:46 324 11.7
2014-Oct-21 20:36 323 11.7
2014-Oct-21 20:31 324 11.7
2014-Oct-21 20:26 323 11.7
2014-Oct-21 20:16 325 11.7
2014-Oct-21 20:11 323 11.7
2014-Oct-21 20:06 323 11.7
2014-Oct-21 19:56 323 12.2
2014-Oct-21 19:51 325 12.2
2014-Oct-21 19:41 325 12.8
2014-Oct-21 19:36 325 13.3
2014-Oct-21 19:31 324 13.3
2014-Oct-21 19:26 323 13.9
2014-Oct-21 19:21 325 14.4
2014-Oct-21 19:16 324 14.4
2014-Oct-21 19:11 323 15.0
2014-Oct-21 19:06 325 1 gusting 3 15.0
2014-Oct-21 18:56 324 2 gusting 6 15.6
2014-Oct-21 18:51 325 2 gusting 6 15.6
2014-Oct-21 18:46 323 3 gusting 4 15.0
2014-Oct-21 18:41 323 2 gusting 4 15.0
2014-Oct-21 18:31 325 15.6
2014-Oct-21 18:26 323 0 gusting 2 15.6
2014-Oct-21 18:21 324 15.6
2014-Oct-21 18:16 323 15.6
2014-Oct-21 18:11 325 1 gusting 4 16.1
2014-Oct-21 18:06 322 1 gusting 4 16.7
2014-Oct-21 18:01 323 0 gusting 3 16.7